Volver al catálogo

FENGYUN 1C DEB

LostPO
NORAD 35150·DEBRIS·🇨🇳 China

Lanzado May 10, 1999 desde Taiyuan Satellite Launch Center

Loading…

Próximos Pases (próximas 24 horas)

TLE

ObsoletoSource: Space-Track

Época: Dec 7, 2014, 14:38 UTC

1 35150U 99025DME 14341.60995891 +.00004999 +00000-0 +10930-2 0  9995
2 35150 099.2457 278.8474 0135476 064.8600 303.3352 14.52693481371375

Sigue FENGYUN 1C DEB en tiempo real con AllMySat

Download on the App Store